Regional Weather Roundup
Issued by NWS Green Bay, WI

Home | Current Version | Previous Version | Graphics & Text | Print | Product List | Glossary Off
Versions: 1 2 3 4 5 6 7 8 9 10 11 12 13 14 15 16 17 18 19 20 21 22 23 24 25 26 27 28 29 30 31 32 33 34 35 36 37 38 39 40 41 42 43 44 45 46 47 48 49 50

000
ASUS43 KGRB 282159
RWRGRB

NORTH-CENTRAL AND NORTHEAST WISCONSIN REGIONAL WEATHER ROUNDUP
NATIONAL WEATHER SERVICE GREEN BAY WI
500 PM CDT THU AUG 28 2014

WIZ005-009-010>012-018-019-282300-
NORTH CENTRAL WISCONSIN

CITY           SKY/WX    TMP DP  RH WIND       PRES   REMARKS
IRONWOOD       NOT AVBL
MANITOWISH WTR NOT AVBL
ARBOR VITAE    NOT AVBL
EAGLE RIVER    NOT AVBL
LAND O LAKES   NOT AVBL
RHINELANDER    CLOUDY    67  56  67 S3        30.09F
PHILLIPS       NOT AVBL
ANTIGO         NOT AVBL
TOMAHAWK       NOT AVBL
MERRILL        NOT AVBL
$$

WIZ013-073-282300-
NORTHEAST WISCONSIN

CITY           SKY/WX    TMP DP  RH WIND       PRES   REMARKS
IRON MOUNTAIN  PTSUNNY   71  55  56 S8        30.07F
MARINETTE      CLOUDY    66  55  68 S9G16     30.09F
$$

WIZ017-030-035>037-045-282300-
CENTRAL WISCONSIN

CITY           SKY/WX    TMP DP  RH WIND       PRES   REMARKS
MEDFORD        NOT AVBL
WAUSAU         LGT RAIN  68  60  75 SE8       30.06S
MOSINEE        LGT RAIN  66  63  88 E6        30.08F
MARSHFIELD     LGT RAIN  69  63  81 E8        30.05F
WISC RAPIDS    LGT RAIN  69  63  81 SE3       30.06F
STEVENS POINT  NOT AVBL
WAUPACA        NOT AVBL
SHAWANO        CLOUDY    71  60  70 SE6       30.08F
CLINTONVILLE   NOT AVBL
$$

WIZ038-039-048-051-282300-
FOX VALLEY

CITY           SKY/WX    TMP DP  RH WIND       PRES   REMARKS
NWS GREEN BAY  CLOUDY    68  58  70 SE13      30.09F
APPLETON       CLOUDY    68  55  64 SE10      30.09F
OSHKOSH        CLOUDY    69  58  67 SE10      30.07F
FOND DU LAC    CLOUDY    68  55  63 SE13      30.08F
$$

WIZ022-050-052-282300-
EAST CENTRAL WISCONSIN

CITY           SKY/WX    TMP DP  RH WIND       PRES   REMARKS
STURGEON BAY   CLOUDY    64  54  68 SE10      30.12S
MANITOWOC      NOT AVBL
SHEBOYGAN      CLOUDY    66  53  63 SE8       30.10F
$$

LMZ563-521-522-541>543-282300-
LAKESHORE

STATION/POSITION TIME  TEMP    WIND        PRES    VSBY  WAVE
                       AIR SEA DIR/SP/G                  HT/PER
                 (UTC) (F)     (DEG/KT/KT) (MB)    (MI)  (FT/S)
SHEBOYGAN LKSHOR 2100   65 70  160/  9/ 10 1020.3F
KEWAUNEE LKSHORE 2100   65     160/  9/ 11 1019.0F
NORTHPORT PIER   2100   65     150/ 10/ 13 1020.0F
N MID LAKE BUOY  2100   63 66  110/  4/  6 1020.7F         0
S GREEN BAY BUOY 2100   68     VRB 12/ 14  1019.9F
STURGEON BAY CG  2100   65 66  160/  9     1021.9      6   2
CHAMBERS ISLAND  2100   66     120/  8/ 11 1019.6F
MENOMINEE LKSHOR 2100   66     130/ 13/ 15 1019.8F
$$


USA.gov is the U.S. government's official web portal to all federal, state and local government web resources and services.